GAOFEN 10R (44622 NORAD) Tracking and Keplerian Element Data

This shows tracking and keplerian element data for the satellite.

Feedback or suggestion? Click here.




ElementValue
Catalog44622
NameGAOFEN 10R
Epoch Orbit438
Epoch Day307.41720426
Epoch Year2019
RAAN251.9222
Inclination97.7887
Eccentricity0.000126
Argument of Perigee98.9169
Mean Anonmoly261.218
Mean Motion14.80498175
Decay Rate1.27E-06
L11 44622U 19066A 19307.41720426 .00000127 00000-0 23217-4 0 9995
L22 44622 97.7887 251.9222 0001260 98.9169 261.2180 14.80498175 4382

Live tracking and technical data element details for GAOFEN 10R (NORAD 44622). GAOFEN 10R can be tracked NOW for your location showing map with azimuth and elevation plus other details from your city location.

Track the satellite on the map from your city or location and see movement details for azimuth, elevation, latitude, longitude, range, height, and movement on the map or in text.







IsCatalogInMostPopularTable: catalog: 44622, numindb: 16
Update: records affected: 1



GetName: 44622 GAOFEN 10R

Hit Count: updated at: Thu, 14 Nov 2019 07:24:34 GMT